Regional Weather Roundup
Issued by NWS

Home | Current Version | Previous Version | Graphics & Text | Print | Product List | Glossary On
Versions: 1 2 3 4 5 6 7 8 9 10 11 12 13 14 15 16 17 18 19 20 21 22 23 24 25 26 27 28 29 30 31 32 33 34 35 36 37 38 39 40 41 42 43 44 45 46 47 48 49 50
000
ASUS43 KLOT 231207
RWRIL

ILLINOIS REGIONAL WEATHER ROUNDUP
NATIONAL WEATHER SERVICE CHICAGO/ROMEOVILLE IL
700 AM CDT THU MAR 23 2017

NOTE: "FAIR" INDICATES FEW OR NO CLOUDS BELOW 12,000 FEET WITH NO
SIGNIFICANT WEATHER AND/OR OBSTRUCTIONS TO VISIBILITY.

* THESE STATIONS ARE NOT UNDER NWS QUALITY CONTROL. THEY ALSO MAY NOT
  REPORT WEATHER SUCH AS PRECIPITATION OR FOG.

ILZ001-002-007-009-015-016-024-231300-
NORTHWEST ILLINOIS

CITY           SKY/WX    TMP DP  RH WIND       PRES   REMARKS
MOLINE         CLOUDY    35  23  61 E13       30.31F WCI  26
6HR MIN TEMP:  33; 6HR MAX TEMP:  35;

STERLING*      CLOUDY    33  23  66 SE12      30.36S WCI  24
SAVANNA*       CLOUDY    33  22  63 SE10      30.34F WCI  25
$$

ILZ003-004-008-010-011-017-018-231300-
NORTH CENTRAL ILLINOIS

CITY           SKY/WX    TMP DP  RH WIND       PRES   REMARKS
ROCKFORD       CLOUDY    34  20  56 SE14      30.39S WCI  25
6HR MIN TEMP:  29; 6HR MAX TEMP:  34;

FREEPORT*      CLOUDY    32  21  64 SE10      30.37S WCI  24
ROCHELLE*      CLOUDY    32  22  65 SE13      30.39R WCI  23
DE KALB*       CLOUDY    32  21  64 SE12      30.38S WCI  23
PERU*          CLOUDY    32  22  65 SE13      30.38S WCI  22
$$

ILZ005-006-012>014-019>023-231300-
NORTHEAST ILLINOIS

CITY           SKY/WX    TMP DP  RH WIND       PRES   REMARKS
CHICAGO-OHARE  CLOUDY    33  19  56 SE13      30.41S WCI  24
6HR MIN TEMP:  29; 6HR MAX TEMP:  33;

CHICAGO-MIDWAY CLOUDY    33  19  56 SE9       30.43R WCI  25
6HR MIN TEMP:  32; 6HR MAX TEMP:  33;

AURORA         CLOUDY    33  21  61 SE13      30.39S WCI  24
6HR MIN TEMP:  31; 6HR MAX TEMP:  34;

LANSING*       CLOUDY    31  22  69 SE9       30.43S WCI  22
JOLIET*        CLOUDY    33  24  69 SE12G17   30.41F WCI  24
WAUKEGAN       CLOUDY    33  21  61 SE10      30.41S WCI  25
6HR MIN TEMP:  21; 6HR MAX TEMP:  33;

DUPAGE AIRPORT CLOUDY    33  21  61 SE8       30.39F WCI  26
6HR MIN TEMP:  28; 6HR MAX TEMP:  33;

KANKAKEE*      CLOUDY    30  22  73 E12G17    30.41F WCI  21
WHEELING       CLOUDY    32  19  58 S12       30.43S WCI  23
6HR MIN TEMP:  25; 6HR MAX TEMP:  32;

MORRIS*        CLOUDY    33  22  66 SE8       30.40R WCI  25
ROMEOVILLE*    CLOUDY    32  24  73 SE9       30.41F WCI  24
NORTHERLY ISL    N/A     32  21  64 SE8         N/A  WCI  25
$$

LMZ740>746-231300-
SOUTHERN LAKE MICHIGAN

STATION/POSITION SKY/WX   TEMP    WIND        PRES    VSBY  WAVE
                          AIR SEA DIR/SP/G                  HT/PER
                          (F)     (DEG/KT/KT) (MB)    (MI)  (FT/S)
HARRISON CRIB              33     150/ 18/ 21   N/A
BURNHAM HARBOR             32     140/ 12       N/A
CALUMET HARBOR             31     130/  7/  9 1029.9R
BURNS HARBOR               30     140/ 11/ 17 1030.5F
MICHIGAN CITY              29     120/ 11/ 15   N/A
$$

ILZ025>027-034>036-040-047-049-050-058-095>099-231300-
WEST-CENTRAL ILLINOIS

CITY           SKY/WX    TMP DP  RH WIND       PRES   REMARKS
QUINCY         LGT RAIN  36  29  75 SE14      30.26S WCI  27
GALESBURG*     CLOUDY    35  24  65 E8          N/A  WCI  28
MACOMB*        CLOUDY    37  24  59 SE14      30.31F WCI  28
JACKSONVILLE*  LGT RAIN  35  27  74 SE10      30.32S WCI  27
PITTSFIELD*    DRIZZLE   37  30  75 E8        30.30S WCI  31
$$

ILZ028>032-037-038-041>044-048-051>054-059>061-231300-
CENTRAL ILLINOIS

CITY           SKY/WX    TMP DP  RH WIND       PRES   REMARKS
PONTIAC        CLOUDY    32  26  80 SE13      30.39R WCI  22
BLOOMINGTON    CLOUDY    31  24  75 SE14      30.35F WCI  21
DECATUR        MOCLDY    33  22  63 SE8       30.36R WCI  26
PEORIA         CLOUDY    34  22  61 SE8       30.35S WCI  27
6HR MIN TEMP:  34; 6HR MAX TEMP:  35;

LACON*         CLOUDY    32  25  74 SE6       30.36S WCI  26
LINCOLN*       CLOUDY    36  25  64 SE9       30.35S WCI  29
SPRINGFIELD    CLOUDY    38  22  52 SE12      30.34S WCI  30
6HR MIN TEMP:  36; 6HR MAX TEMP:  38;

TAYLORVILLE    CLOUDY    36  23  59 SE10      30.34F WCI  28
6HR MIN TEMP:  35; 6HR MAX TEMP:  36;

$$

ILZ033-039-045-046-055>057-062-063-231300-
EAST-CENTRAL ILLINOIS

CITY           SKY/WX    TMP DP  RH WIND       PRES   REMARKS
CHAMPAIGN      PTCLDY    29  22  75 E10       30.37S WCI  20
RANTOUL*       CLOUDY    31  26  79 E8        30.38S WCI  24
MATTOON        MOCLDY    34  21  59 SE13      30.35S WCI  25
PARIS*         MOCLDY    31  23  73 E9        30.38F WCI  22
$$

ILZ079-100>102-231300-
SOUTHWEST ILLINOIS

CITY           SKY/WX    TMP DP  RH WIND       PRES   REMARKS
ALTON          DRIZZLE   36  30  80 E9        30.33R WCI  29
BELLEVILLE     MIX PCPN  36  32  87 E7        30.31R WCI  30
CAHOKIA*       CLOUDY    38  30  73 E14       30.31S WCI  30
SPARTA*        RAIN      37  32  82 E8        30.33R WCI  31
$$

ILZ064>066-069>071-074>076-080>082-084>086-088>090-092>094-231300-
SOUTH-CENTRAL ILLINOIS

CITY           SKY/WX    TMP DP  RH WIND       PRES   REMARKS
CARBONDALE     LGT RAIN  37  33  85 E5        30.33F WCI  33
6HR MIN TEMP:  37; 6HR MAX TEMP:  41; 6HR PCP:  0.03;

CAIRO*         CLOUDY    42  29  60 NE7       30.33R
EFFINGHAM*     CLOUDY    34  25  68 E6        30.39R WCI  29
MARION         DRIZZLE   39  27  60 NE6       30.36R WCI  35
MT. VERNON     CLOUDY    36  23  59 CALM      30.37R
CENTRALIA*     LGT RAIN  37  25  61 SE7       30.34S WCI  32
SALEM*         MOCLDY    37  23  58 CALM      30.36R
METROPOLIS*    CLOUDY    41  24  51 E6        30.34R
$$

ILZ067-068-072-073-078-083-087-091-231300-
SOUTHEAST ILLINOIS

CITY           SKY/WX    TMP DP  RH WIND       PRES   REMARKS
LAWRENCEVILLE  CLOUDY    33  21  61 E13       30.37F WCI  24
FLORA*         CLOUDY    34  25  69 E3        30.38R
FAIRFIELD*     MOCLDY    35  24  63 CALM      30.36R
HARRISBURG*    CLOUDY    38  27  65 E8        30.35S WCI  32
ROBINSON*      PTCLDY    32  22  65 E7        30.39S WCI  26
CARMI*         CLOUDY    37  24  61 E6        30.36R WCI  32
$$

ABBREVIATIONS USED IN REMARKS
   TC - TEMPERATURE IN CELSIUS
  WCI - WIND CHILL INDEX
   HX - HEAT INDEX
  VSB - VISIBILITY
$$




USA.gov is the U.S. government's official web portal to all federal, state and local government web resources and services.